Vorticity
5 5 7 6 6 6 6 7 6 5 7 8 15 27 17 14 11 -1 6 -0 -6 2 2 6 6 6 8 6 7 2 -5 -3 -7 -6 4 2 1 4 6 6 10 13 9 9 5 5 9 10 9 7 8 8 6 6 6 6 5 6 8 7 5 3 2 3 3 4 5 6 6 7 7 7 7 7 6 6 6 7 8 9 11 11 11 8 10 11 7 9 6 4 5 4 6 6 7 9 7
5 7 6 5 6 7 7 6 8 6 8 13 22 25 8 16 19 1 6 -0 -6 2 1 5 7 6 4 1 7 9 1 -2 -4 -2 1 0 3 4 5 8 20 29 14 1 3 7 2 -2 3 6 7 8 6 6 7 6 6 7 7 4 2 1 1 2 2 3 5 6 6 8 8 8 8 7 6 6 6 7 8 8 10 11 11 9 9 12 8 7 6 4 5 4 5 5 6 7 8
5 6 5 7 6 7 7 5 9 4 10 20 24 26 8 12 19 5 5 4 2 -0 -4 5 8 3 3 -0 -2 1 -1 -8 -11 -5 -5 -3 3 2 2 2 9 23 20 11 8 7 1 -4 -1 5 7 8 7 6 5 6 7 7 4 2 1 1 2 3 4 4 5 6 6 7 8 8 8 7 7 6 6 7 8 9 9 10 11 10 10 13 10 6 6 4 5 6 5 4 5 6 7
5 5 4 6 4 6 5 6 9 4 24 30 22 25 4 2 15 6 4 5 3 -3 -6 2 4 2 5 2 -3 -4 -5 -6 -5 4 5 3 5 1 -2 2 8 2 -5 2 8 6 4 -1 -1 4 7 8 6 5 6 7 6 4 2 1 3 4 4 5 5 5 5 6 6 7 8 7 7 6 7 6 7 7 8 9 8 9 10 11 10 13 11 7 6 3 3 4 5 4 4 5 6
6 5 5 4 4 7 4 8 6 8 32 25 14 15 -4 2 12 0 3 9 7 -1 -4 1 2 3 6 2 1 2 -1 2 5 11 16 12 6 7 4 3 12 -1 -20 -14 -4 2 6 3 2 2 4 7 6 6 7 6 3 0 2 3 4 5 5 6 6 6 5 6 7 8 7 6 6 7 7 7 7 7 8 9 10 8 9 11 10 11 11 9 6 5 4 3 4 5 5 5 4
6 5 6 4 6 6 5 9 3 17 32 13 9 9 -2 7 6 -4 -0 6 8 4 2 5 2 2 4 2 3 5 5 8 10 11 16 16 7 7 9 3 8 9 2 1 -4 2 10 5 5 5 5 8 7 7 7 4 2 2 4 4 5 5 6 7 6 6 6 7 8 8 7 6 7 8 7 7 7 8 8 9 11 9 8 10 10 10 10 9 7 6 6 4 4 5 5 6 5
6 5 7 5 7 6 7 7 4 24 31 14 6 5 5 6 1 -3 -2 0 -0 -2 1 4 3 2 2 1 1 3 6 7 8 12 13 13 9 0 -0 5 9 9 9 13 10 10 14 10 8 9 8 8 7 7 6 3 3 4 4 4 5 6 6 6 7 7 7 7 8 8 8 8 8 9 7 7 6 7 8 9 11 10 10 10 10 10 10 8 7 7 6 6 4 4 4 6 6
6 6 7 5 6 6 6 7 13 25 27 22 3 3 12 1 -0 -4 -3 3 -2 -3 1 3 4 4 4 4 4 4 4 -2 -0 18 22 6 4 4 0 5 7 7 6 9 13 9 12 18 14 10 8 6 7 7 5 3 3 4 4 5 6 7 8 7 8 7 8 7 7 8 8 8 8 8 8 7 6 6 7 9 11 11 11 10 9 10 9 7 6 6 6 7 6 4 2 3 6
7 6 7 6 7 7 8 8 18 21 25 32 1 1 13 -2 3 -1 -2 4 1 4 5 4 2 2 4 4 3 2 -1 -4 -3 12 24 15 9 9 6 7 4 7 8 8 16 10 7 20 20 11 7 5 8 7 4 3 3 3 4 5 7 8 9 8 9 8 8 7 7 8 7 8 7 7 8 8 7 6 7 9 11 12 10 10 9 9 9 7 6 5 5 7 8 8 6 3 4
7 7 7 8 7 6 9 8 15 16 22 34 1 -4 10 -1 5 2 -0 8 8 7 7 6 2 1 0 1 1 -1 -3 -2 4 2 11 22 21 11 3 7 6 9 10 9 15 15 14 22 21 13 10 11 10 5 2 3 3 4 6 8 8 8 8 7 9 8 7 7 6 7 7 7 7 7 7 7 7 6 7 8 11 12 10 9 9 8 8 7 6 6 5 5 6 8 9 6 4
7 7 7 6 8 5 8 10 13 13 18 30 6 -3 8 3 6 -0 -5 7 13 7 7 8 4 7 2 0 -2 -4 -3 -2 10 9 4 6 11 11 1 2 5 7 8 7 10 18 22 14 11 14 16 11 5 3 4 6 6 7 8 7 7 6 7 7 9 7 5 6 6 6 7 7 7 7 7 6 6 6 7 8 10 12 12 9 8 8 7 7 7 8 8 7 5 3 6 7 7
7 8 9 5 10 5 9 14 12 17 21 26 10 1 5 1 2 -7 -11 3 11 4 4 3 3 10 6 6 6 4 4 3 8 6 8 7 6 6 2 4 2 5 10 16 18 15 12 4 8 13 10 6 5 7 6 7 7 8 8 7 7 7 7 8 9 7 6 6 4 4 5 6 7 7 7 6 5 6 7 8 10 12 14 10 7 6 5 7 6 7 9 10 10 5 3 4 7
6 6 8 7 10 6 13 17 16 28 27 19 7 4 2 -3 2 -5 -9 5 14 9 6 2 -0 4 6 11 12 13 16 18 17 9 9 14 12 4 7 12 6 18 23 18 16 9 8 8 11 10 6 8 6 3 3 6 8 8 9 9 8 8 8 8 8 7 7 6 2 3 4 5 6 7 8 7 6 6 6 7 9 12 13 11 8 5 3 6 7 8 8 10 13 11 7 5 6
7 7 6 7 10 8 15 17 19 28 23 11 1 8 2 -12 -0 3 2 10 15 15 11 5 -1 0 5 7 1 2 14 19 22 20 11 11 14 6 9 13 16 33 20 3 11 11 12 12 10 9 6 2 -2 -0 4 7 8 9 9 9 9 9 9 7 7 7 7 5 3 4 5 5 4 6 8 9 9 7 7 8 9 11 12 11 9 5 3 4 6 8 8 9 11 13 11 8 7
8 8 8 9 13 10 14 22 23 14 14 13 2 14 10 -14 -11 -3 4 6 5 9 8 6 3 5 8 4 -5 -5 7 13 16 20 13 9 7 -1 3 6 14 28 14 4 12 9 7 7 5 2 -1 -2 1 6 8 9 8 7 7 7 7 8 8 7 7 7 6 4 4 5 5 6 5 5 8 9 10 9 9 9 10 11 12 11 9 6 4 2 3 5 6 7 9 11 11 9 9
7 8 9 10 14 14 15 27 23 -1 2 11 -2 7 11 -3 -6 -7 1 1 1 4 1 6 6 7 9 4 4 7 12 13 14 15 13 15 8 -2 3 7 11 17 12 6 4 6 1 -4 -1 1 5 8 10 11 9 9 6 6 6 5 6 5 5 6 7 6 6 5 4 5 6 6 7 7 8 9 10 9 10 10 10 10 10 11 9 7 5 4 3 4 5 5 6 8 10 10 8
7 9 10 10 15 17 17 27 22 -1 -1 8 -2 3 10 4 -3 -5 4 3 3 6 1 4 1 -5 0 2 6 16 19 16 15 13 11 17 15 7 5 13 16 7 2 -5 -5 8 2 -0 9 11 13 11 10 10 8 8 8 8 6 6 6 5 6 6 6 6 6 6 5 6 6 7 8 8 9 9 10 10 11 10 10 9 9 10 9 8 7 6 5 5 5 5 5 7 10 11 9
9 9 9 12 15 16 18 21 19 7 4 9 -1 -2 12 10 1 -0 6 6 3 8 4 -3 1 6 13 18 15 12 14 14 10 1 -3 2 7 6 2 5 9 8 10 3 1 10 8 11 15 9 9 10 10 8 7 9 7 6 5 7 9 8 9 8 6 7 7 6 6 6 7 7 7 8 8 8 9 11 11 9 9 10 10 10 10 9 8 8 7 7 6 6 8 10 11 11 10
8 7 10 14 13 13 21 18 13 9 5 10 -2 -14 3 9 7 6 1 11 10 7 12 9 17 26 25 27 25 17 13 15 11 4 3 7 8 9 5 3 8 14 15 10 15 19 14 11 8 9 11 10 10 10 8 7 5 6 9 9 9 8 7 6 6 5 6 5 6 7 7 7 6 5 5 7 9 10 11 10 10 10 9 8 9 8 7 8 8 9 9 9 11 12 11 10 9
7 7 12 14 8 10 22 18 9 8 2 9 2 -17 -8 -4 2 9 -3 8 14 3 14 19 13 12 12 14 15 17 17 16 13 11 9 4 3 6 6 3 4 5 4 23 50 38 13 6 6 8 9 9 9 8 7 7 9 10 10 9 6 6 5 5 6 6 6 6 6 7 6 7 7 6 4 6 9 11 11 10 10 9 7 5 6 7 8 9 11 13 12 11 13 11 9 8 8
8 10 14 9 6 10 14 11 5 4 -1 4 5 -8 -2 -5 -7 6 -2 0 11 3 4 1 -7 3 14 11 7 11 14 12 4 -2 -1 1 5 6 5 4 1 0 -2 23 55 32 1 1 3 4 3 4 5 6 9 9 10 9 7 8 5 5 6 5 6 5 6 6 6 5 4 5 6 6 6 9 12 14 13 10 9 9 9 8 9 9 9 9 10 11 10 9 10 9 8 9 9
7 10 12 7 9 13 10 10 6 2 -2 -3 2 4 19 21 4 9 11 8 14 12 7 -2 -2 12 14 7 7 7 8 11 10 8 12 17 21 14 11 9 7 11 8 14 23 4 -3 6 -0 1 2 5 10 10 11 9 7 8 6 6 6 7 7 7 7 7 7 7 7 7 7 7 6 4 6 10 13 14 13 12 12 11 11 10 9 8 8 9 8 8 9 9 9 9 10 11 11
8 8 8 7 10 11 9 13 7 1 1 -1 0 1 15 24 10 9 15 13 13 13 12 9 9 11 8 7 9 8 9 14 16 20 19 16 19 19 16 12 10 12 11 14 13 -0 9 17 -2 -5 1 3 8 5 5 8 8 8 7 6 6 6 5 6 7 8 10 8 6 9 12 10 7 5 9 15 15 12 11 13 16 13 9 8 8 10 10 11 11 12 12 11 10 10 8 7 8
7 7 7 6 8 8 6 8 5 3 4 4 10 9 8 10 2 2 9 9 9 8 9 13 12 8 8 8 8 9 11 6 -2 3 7 1 2 10 11 11 13 10 14 22 24 12 8 17 12 7 7 0 -0 4 7 10 8 7 7 6 5 5 5 5 7 8 8 8 7 11 13 12 9 6 11 15 12 12 10 10 13 13 9 6 8 10 10 11 10 10 9 9 9 7 4 2 3
5 6 6 4 4 5 4 3 4 5 4 5 14 17 12 9 1 1 10 10 9 9 8 10 9 7 8 11 14 14 13 7 1 3 4 -2 -0 6 7 9 9 9 24 27 12 -6 -8 22 34 16 12 10 6 9 10 9 9 9 7 7 7 7 8 8 8 8 9 10 10 11 12 12 11 8 9 10 9 11 9 5 7 8 6 6 7 7 8 10 9 10 11 10 8 6 4 4 5
7 6 6 5 4 5 4 3 1 2 9 13 15 15 11 9 5 3 9 7 7 10 6 7 12 14 13 12 15 15 13 12 10 8 4 4 8 9 7 9 8 6 19 20 4 -8 3 37 38 13 13 15 9 7 7 9 9 9 10 10 10 10 11 11 11 11 11 13 12 13 13 13 12 11 12 12 12 12 10 10 11 8 6 7 7 6 7 8 8 12 14 11 9 8 8 8 8
6 5 5 4 5 6 5 5 4 0 6 11 10 10 6 7 8 4 6 6 6 8 5 8 13 15 14 12 10 9 8 7 7 7 8 10 8 9 8 8 10 8 10 16 14 9 18 34 25 14 15 8 6 5 5 9 8 8 8 8 11 12 13 13 11 10 10 13 17 17 17 15 11 12 13 13 11 9 10 13 14 10 9 8 7 7 9 8 5 4 2 1 4 6 7 8 8
6 5 5 5 5 7 6 5 3 -0 -2 1 6 8 5 9 11 5 6 9 6 6 6 7 8 8 8 7 4 5 6 6 9 9 9 9 8 11 11 8 10 11 7 4 3 3 12 22 16 9 8 4 6 5 5 11 10 8 7 7 10 11 13 14 12 9 7 10 14 13 15 18 14 12 13 12 9 9 12 13 14 14 9 6 6 9 11 9 8 6 1 2 4 4 5 6 7
5 3 3 5 5 8 14 11 4 1 1 3 6 6 4 9 12 7 7 8 6 7 9 11 11 6 2 3 6 7 9 7 5 5 7 9 11 12 12 13 14 14 8 -10 -14 -4 4 10 10 6 6 8 7 5 8 12 12 10 8 8 8 9 11 11 10 9 9 7 8 8 9 14 13 11 13 15 13 13 16 15 15 19 14 9 7 6 8 8 10 11 10 7 5 4 6 6 6
6 6 4 6 11 14 17 13 8 6 7 7 7 7 8 9 8 7 7 7 9 12 14 14 10 1 -4 4 10 6 4 5 7 10 10 9 12 14 14 15 13 18 15 -10 -28 -21 -1 10 8 7 8 9 7 7 9 12 14 11 6 7 7 7 7 7 8 8 8 6 7 8 5 8 9 7 11 15 15 13 16 14 8 9 12 10 7 5 6 8 9 10 10 9 7 7 8 7 5
8 10 11 13 19 18 14 13 13 12 8 7 8 10 14 11 4 4 6 7 10 11 9 5 -1 -5 -3 4 12 12 11 13 14 11 6 9 16 14 13 13 17 23 18 5 -20 -40 -14 13 8 8 12 10 7 7 9 12 14 10 7 8 7 7 6 6 6 4 7 8 9 9 8 10 8 5 7 10 13 12 12 12 8 5 5 5 6 8 10 10 10 9 10 11 12 11 9 7 6
7 11 15 17 18 15 16 21 20 15 8 10 12 13 19 17 8 7 7 4 7 7 2 -2 -4 -2 -1 -0 8 11 9 13 12 5 6 16 19 11 8 6 13 27 26 24 8 -22 -10 11 6 8 12 9 8 6 8 10 10 10 8 8 9 10 9 8 8 7 7 9 10 10 10 11 8 6 8 10 11 12 10 9 9 8 5 4 6 10 12 12 11 9 9 10 11 11 9 8 9
11 15 15 11 8 6 11 15 16 12 8 14 15 16 23 17 6 4 6 6 8 9 4 0 -1 1 1 1 7 3 -5 2 4 3 12 18 13 7 8 2 1 20 31 27 17 3 8 13 6 7 10 9 8 5 7 8 9 9 6 6 7 8 8 8 10 9 7 7 9 10 12 12 9 9 10 10 10 12 11 6 6 5 4 6 6 8 10 10 10 10 9 10 11 12 10 10 11
11 13 13 12 10 9 10 9 12 6 5 15 10 14 22 7 -1 1 6 11 9 8 7 2 0 1 1 1 6 5 6 12 3 -4 3 5 5 7 10 11 9 13 18 16 12 11 11 9 6 6 7 8 6 5 7 8 10 9 7 7 6 5 5 5 6 8 7 6 5 6 10 10 9 9 8 7 9 13 9 5 7 5 3 5 6 7 8 8 8 9 10 11 12 13 12 12 12
11 12 10 16 16 15 12 8 12 2 -2 8 3 15 23 5 3 8 10 13 6 5 6 4 4 4 5 6 8 8 15 23 14 8 7 2 6 9 7 10 12 9 7 9 9 8 7 8 9 8 7 7 7 7 7 8 10 10 9 8 8 6 3 3 4 6 8 8 8 7 8 9 9 9 9 8 9 12 10 8 10 7 3 4 5 7 8 9 8 7 8 9 10 11 12 12 10
16 17 13 14 8 11 11 3 9 4 -6 -2 3 25 26 6 7 7 7 9 2 2 0 3 8 8 10 8 11 15 18 23 22 19 12 7 6 5 5 5 3 2 2 5 5 4 6 10 13 11 8 9 9 7 7 8 9 9 10 10 11 11 7 6 4 4 6 7 9 10 11 12 11 10 10 9 9 10 9 8 7 6 5 4 5 7 7 8 8 7 7 7 8 10 9 10 10
17 18 18 14 3 7 8 -1 10 12 1 2 14 31 20 3 6 3 8 9 -0 -1 -2 5 11 9 10 6 10 19 17 19 22 17 10 8 9 2 1 4 1 3 4 5 4 4 8 10 11 9 6 7 7 7 7 8 8 8 8 8 9 9 8 8 7 6 6 5 6 9 11 11 12 13 11 10 9 9 8 7 6 5 4 4 4 6 6 7 6 6 6 5 7 8 8 10 10
20 20 15 7 1 2 -1 -3 11 14 9 11 12 16 9 -0 -1 -1 11 10 1 3 2 6 7 1 4 3 6 12 9 9 10 10 8 5 7 5 3 4 3 5 7 7 5 6 8 7 7 6 6 7 6 5 7 8 8 6 4 6 7 5 5 7 8 7 6 7 7 7 8 9 9 11 12 13 12 10 10 8 6 5 5 5 5 6 7 7 7 6 5 4 4 6 8 8 9
18 21 9 1 1 2 3 2 14 15 6 8 2 -1 2 2 3 5 8 2 -3 4 5 3 2 -1 1 1 3 7 8 7 5 10 15 11 8 9 10 10 9 9 7 6 6 7 7 5 5 6 7 12 10 5 4 6 8 6 4 6 6 5 5 5 6 7 6 7 7 5 5 7 7 8 9 12 13 13 12 9 8 8 7 7 7 7 8 8 8 7 5 5 5 5 6 7 8
12 17 6 1 -1 6 19 7 8 15 -0 0 1 -4 1 4 17 21 5 -1 -1 2 5 1 -2 -2 1 3 1 3 7 9 13 15 12 12 13 13 14 13 11 9 6 6 8 8 6 4 4 4 6 12 12 7 3 5 11 10 7 6 7 7 8 6 6 9 9 7 7 6 3 3 4 6 6 7 9 9 9 9 10 11 9 9 9 8 9 8 8 7 6 5 5 5 5 5 7
7 15 8 4 0 5 19 3 1 11 -4 -1 4 1 4 -1 16 27 4 -1 3 -1 2 -1 -1 1 1 3 -1 -0 4 9 22 25 12 9 11 11 12 13 13 10 7 7 7 6 5 4 4 6 8 9 10 8 3 2 9 14 10 8 8 9 10 10 9 10 10 8 7 7 6 5 4 4 5 5 6 6 7 8 9 9 9 9 10 9 9 9 8 8 7 6 6 6 6 6 6
7 17 9 1 2 -1 0 -3 0 4 -7 -5 -4 -5 -2 -10 7 20 -2 -2 5 -1 -2 -5 -1 3 0 2 1 6 13 13 16 20 17 12 9 10 12 12 11 10 9 8 7 8 6 5 7 8 6 7 9 13 13 7 7 15 14 8 8 10 11 11 10 11 12 10 8 8 8 8 6 6 7 6 6 7 7 8 8 8 9 9 9 9 9 9 9 8 8 7 7 7 6 6 6
11 20 14 -3 2 3 -5 -6 -0 -3 -9 -5 -4 -2 -1 -4 10 12 -6 -2 5 1 -1 -1 4 7 4 5 6 13 21 17 6 6 11 6 3 14 20 17 15 12 10 9 9 8 6 6 8 8 8 9 10 19 28 15 1 6 12 9 5 5 8 11 10 9 10 11 10 9 8 9 10 9 9 9 8 9 8 8 9 9 10 10 11 11 10 9 8 8 8 8 8 8 7 7 6
14 21 25 2 -3 7 3 -1 2 -1 -6 -4 -2 1 8 13 17 13 5 6 6 4 3 2 4 5 5 6 7 6 6 6 0 -1 6 7 8 15 16 16 18 17 13 11 10 9 8 8 6 7 7 6 5 14 27 16 -5 -5 5 10 11 8 5 7 10 9 8 10 10 10 9 9 10 9 9 10 9 9 9 8 9 9 10 10 10 11 10 10 9 9 9 8 8 8 8 8 7
12 17 29 13 -5 2 7 3 4 -0 -3 -1 -5 -4 7 14 16 19 21 12 0 -1 1 -3 -4 1 7 7 6 3 -0 2 1 0 7 14 18 13 4 3 5 9 10 9 11 12 11 9 7 8 8 7 5 6 17 17 2 -9 -16 -20 -14 2 9 5 6 10 9 10 11 12 11 8 9 9 9 10 10 10 9 9 9 9 9 9 10 10 9 9 9 9 9 9 9 9 8 8 8
10 11 22 21 2 -3 -1 -1 2 3 2 -1 -7 -3 5 10 15 21 26 19 4 1 3 -0 -2 3 7 6 3 3 3 3 4 9 15 14 11 8 5 3 2 4 4 2 4 7 6 4 3 4 4 5 4 -1 5 13 9 3 -2 -14 -22 -6 13 11 7 9 10 11 11 13 14 11 9 9 9 9 10 10 10 11 10 10 10 10 9 10 10 10 9 9 10 10 10 10 10 10 9
9 9 11 18 11 1 -4 -5 -0 3 3 -1 -5 -1 6 8 6 4 11 19 15 14 13 6 3 2 2 3 2 5 5 1 8 18 17 6 -0 -1 0 1 2 1 0 0 3 5 6 5 5 5 3 5 6 1 1 6 6 3 10 14 4 4 18 16 8 8 10 11 11 13 16 15 11 10 10 10 11 12 12 11 11 11 11 11 11 10 10 10 10 11 11 10 11 12 12 12 11
8 8 8 11 12 9 6 6 8 5 1 1 0 0 2 3 1 3 13 17 13 16 14 7 7 2 -1 1 0 4 6 4 12 13 3 -0 1 -0 -0 1 2 1 1 2 3 6 9 8 7 5 3 6 9 5 1 5 9 3 4 13 13 15 25 18 6 7 11 11 12 13 16 16 14 11 10 11 11 12 12 11 12 12 11 11 12 12 11 12 12 11 12 12 12 13 13 13 13
14 14 12 10 9 9 10 12 15 15 10 5 5 5 6 7 8 11 16 12 9 14 13 8 8 2 1 4 4 6 7 7 12 4 -4 3 5 3 5 5 4 4 4 4 4 5 7 9 7 5 6 8 10 10 4 3 9 6 3 7 9 17 22 11 4 8 11 12 12 12 14 15 13 11 11 10 9 9 10 10 10 11 12 12 12 12 12 12 13 12 12 12 12 13 13 14 15
12 15 13 12 14 12 11 12 13 19 21 14 8 8 9 10 9 8 9 10 12 15 13 9 7 4 6 8 6 7 7 7 6 1 1 8 7 6 7 5 5 7 6 6 6 4 6 9 8 7 6 0 2 10 10 8 13 15 15 7 2 12 17 7 8 13 11 11 12 10 11 11 9 9 10 10 8 8 8 9 9 10 10 11 11 12 12 12 12 12 11 11 11 12 12 12 13
4 7 8 7 10 11 11 11 10 13 19 20 16 14 13 9 6 9 10 10 11 10 9 8 6 7 8 7 5 7 9 6 5 5 6 5 2 3 3 2 5 6 4 6 7 6 8 9 9 12 12 15 26 28 17 14 12 15 28 20 5 16 21 9 11 15 10 9 10 10 11 11 7 5 7 8 8 9 9 9 9 10 10 11 11 10 11 11 11 12 12 12 12 11 11 11 11
14 9 7 5 9 14 13 11 10 10 13 15 15 15 15 10 8 16 18 16 15 12 9 10 10 8 5 1 -0 5 9 6 4 6 4 -1 0 1 2 4 6 7 8 9 9 10 11 10 13 13 9 17 24 9 -1 10 6 2 18 19 11 21 21 9 13 15 8 7 9 10 10 10 7 4 4 7 7 7 8 9 9 10 10 10 11 11 11 10 10 11 11 11 11 11 10 10 10
22 13 5 4 8 10 9 10 12 12 13 15 15 16 19 17 12 14 18 19 23 22 21 23 23 21 19 12 5 6 9 8 5 4 1 -0 1 3 5 7 8 8 9 9 9 11 11 13 15 12 6 5 0 -11 -6 12 11 9 18 16 15 23 14 6 12 11 5 6 7 7 7 7 6 4 4 8 10 9 8 7 7 8 8 7 8 9 9 9 8 9 9 10 10 9 9 8 8
16 13 8 3 4 5 4 5 7 14 17 18 19 16 13 12 6 4 9 13 15 17 17 14 12 17 20 18 12 7 6 6 4 4 6 7 7 11 13 12 11 10 7 7 10 10 11 14 14 15 14 11 9 9 15 17 8 8 14 10 14 24 13 4 9 9 7 7 5 3 4 4 6 4 3 5 9 11 11 9 8 7 7 7 7 7 7 7 7 7 8 9 9 9 9 9 8
7 5 10 8 4 5 7 3 5 17 20 16 19 19 12 9 8 5 6 9 7 6 7 4 4 8 7 7 9 8 9 11 10 11 15 18 19 19 17 15 13 10 8 8 9 9 9 11 13 14 15 16 17 16 16 17 10 8 11 8 16 27 13 0 8 10 7 6 5 5 5 5 7 7 5 4 5 7 8 8 10 8 6 6 7 9 10 9 9 9 10 10 10 10 9 10 10
7 -4 -1 6 3 -2 2 1 4 15 17 11 12 15 14 11 10 8 5 5 4 4 7 6 6 7 5 7 11 10 11 12 13 14 12 11 11 10 9 8 6 6 7 6 4 5 5 7 9 10 10 12 15 16 15 15 10 8 11 11 21 24 -0 -9 9 12 6 7 6 7 9 7 6 5 5 4 3 3 2 4 9 9 7 9 10 9 9 8 6 5 5 5 5 6 6 7 8
3 -6 -8 3 8 4 3 3 3 6 7 7 6 6 7 7 8 11 9 6 5 7 8 8 8 6 5 8 8 8 11 11 10 10 8 7 8 8 8 6 3 4 5 4 4 5 5 5 6 5 4 5 8 12 13 14 14 12 9 8 14 11 -7 -0 17 6 -2 6 7 7 8 5 5 6 7 7 5 5 4 3 6 6 7 12 12 6 4 6 6 4 4 4 2 2 4 5 7
-1 -1 2 10 14 8 3 3 3 3 1 3 5 4 4 4 4 6 7 7 8 9 10 9 8 4 4 6 2 6 18 18 12 6 1 1 5 9 8 1 -2 -0 2 4 5 4 4 5 7 5 4 7 10 8 6 10 16 17 16 11 5 2 0 8 15 5 0 8 9 7 5 2 2 4 4 5 6 7 7 5 6 5 4 7 8 5 4 5 7 7 4 4 5 6 7 6 6
Height
5841 5842 5842 5842 5843 5843 5844 5844 5844 5844 5845 5846 5849 5850 5849 5849 5849 5848 5847 5845 5843 5847 5849 5849 5848 5849 5852 5854 5855 5856 5856 5857 5858 5858 5856 5855 5854 5852 5850 5848 5846 5845 5848 5851 5852 5853 5853 5853 5853 5853 5854 5854 5854 5854 5855 5855 5854 5854 5853 5853 5853 5852 5851 5851 5850 5850 5850 5849 5849 5849 5848 5848 5848 5847 5846 5846 5845 5844 5844 5844 5844 5844 5844 5844 5844 5845 5845 5846 5846 5847 5848 5848 5848 5848 5847 5848 5848
5839 5839 5840 5840 5840 5841 5840 5841 5841 5841 5842 5844 5847 5846 5845 5846 5846 5844 5843 5842 5843 5846 5847 5848 5847 5847 5849 5852 5854 5855 5856 5857 5857 5857 5855 5853 5851 5850 5848 5846 5847 5844 5846 5851 5852 5852 5852 5852 5852 5852 5852 5852 5852 5852 5853 5853 5853 5852 5852 5852 5851 5850 5850 5849 5849 5848 5848 5848 5847 5847 5847 5846 5846 5846 5845 5845 5844 5843 5843 5843 5843 5843 5843 5843 5843 5844 5844 5845 5845 5846 5846 5847 5847 5847 5847 5847 5848
5836 5836 5837 5837 5837 5838 5837 5838 5838 5838 5840 5843 5844 5842 5842 5843 5842 5842 5841 5841 5842 5843 5846 5846 5846 5846 5847 5849 5851 5853 5854 5855 5855 5855 5853 5851 5848 5848 5848 5848 5851 5849 5846 5848 5848 5849 5849 5849 5850 5850 5850 5850 5850 5850 5851 5851 5851 5850 5850 5850 5849 5849 5849 5848 5848 5847 5846 5846 5846 5845 5845 5845 5844 5844 5844 5843 5843 5842 5842 5841 5841 5842 5842 5842 5842 5843 5843 5844 5844 5845 5845 5846 5846 5846 5847 5847 5847
5833 5833 5833 5834 5834 5835 5834 5835 5835 5836 5838 5841 5841 5839 5839 5839 5839 5840 5839 5839 5840 5841 5843 5844 5845 5845 5846 5847 5848 5850 5851 5852 5852 5851 5850 5850 5848 5847 5848 5847 5849 5849 5845 5844 5845 5846 5847 5847 5847 5848 5848 5848 5848 5848 5849 5849 5849 5849 5848 5848 5848 5847 5847 5847 5846 5845 5845 5844 5844 5843 5843 5843 5842 5842 5842 5842 5841 5841 5841 5840 5840 5840 5841 5841 5841 5841 5842 5842 5843 5843 5844 5845 5845 5845 5846 5846 5846
5829 5829 5830 5831 5831 5831 5832 5832 5832 5834 5837 5838 5838 5836 5836 5836 5836 5837 5837 5838 5838 5839 5840 5841 5843 5843 5844 5844 5845 5848 5849 5849 5849 5849 5848 5849 5848 5845 5845 5845 5845 5846 5844 5844 5844 5844 5844 5844 5845 5845 5845 5846 5846 5846 5847 5847 5847 5847 5847 5846 5846 5845 5845 5845 5844 5844 5843 5842 5842 5841 5841 5841 5841 5841 5840 5840 5840 5840 5840 5839 5839 5839 5839 5840 5840 5840 5840 5841 5842 5842 5843 5844 5844 5844 5845 5845 5846
5826 5826 5827 5828 5828 5829 5829 5829 5830 5832 5835 5835 5835 5834 5834 5834 5833 5834 5835 5835 5835 5837 5837 5839 5840 5840 5840 5841 5841 5844 5846 5846 5846 5847 5846 5846 5845 5842 5842 5843 5843 5843 5842 5842 5842 5841 5841 5841 5842 5842 5843 5843 5844 5844 5845 5845 5845 5845 5845 5844 5844 5844 5843 5843 5842 5842 5841 5840 5840 5839 5839 5839 5839 5839 5839 5839 5839 5838 5838 5838 5838 5838 5838 5838 5838 5838 5839 5840 5841 5841 5842 5843 5843 5843 5844 5844 5845
5823 5824 5824 5825 5825 5826 5826 5827 5828 5830 5833 5833 5832 5832 5832 5832 5832 5832 5832 5831 5832 5834 5834 5835 5837 5837 5837 5837 5838 5840 5842 5843 5843 5844 5844 5842 5841 5841 5841 5841 5841 5840 5839 5839 5839 5839 5839 5839 5839 5839 5840 5841 5842 5843 5843 5844 5844 5843 5843 5843 5842 5842 5842 5841 5840 5840 5839 5839 5838 5838 5838 5838 5838 5837 5837 5837 5837 5837 5836 5836 5836 5836 5837 5837 5837 5837 5838 5839 5839 5840 5841 5841 5842 5842 5842 5843 5844
5821 5821 5821 5822 5822 5823 5823 5824 5826 5828 5830 5830 5831 5831 5830 5830 5829 5828 5828 5828 5829 5830 5831 5832 5833 5835 5834 5834 5835 5836 5837 5839 5840 5841 5841 5839 5838 5838 5839 5839 5838 5837 5837 5836 5836 5836 5836 5836 5836 5837 5838 5839 5840 5841 5842 5842 5842 5841 5841 5841 5841 5840 5840 5839 5839 5838 5837 5837 5837 5836 5836 5836 5836 5836 5835 5835 5835 5835 5835 5835 5835 5835 5835 5835 5835 5836 5837 5837 5838 5839 5839 5840 5841 5841 5841 5842 5843
5818 5818 5818 5819 5819 5820 5821 5822 5824 5825 5826 5828 5829 5829 5827 5826 5826 5826 5826 5825 5826 5828 5829 5829 5830 5831 5831 5831 5832 5832 5833 5835 5836 5837 5837 5836 5835 5836 5836 5836 5835 5834 5834 5834 5834 5834 5834 5834 5834 5835 5836 5838 5839 5840 5840 5840 5840 5840 5839 5839 5839 5838 5838 5837 5837 5836 5836 5835 5835 5835 5835 5834 5834 5834 5833 5833 5833 5833 5833 5833 5834 5834 5834 5834 5834 5835 5835 5836 5836 5837 5838 5839 5840 5839 5840 5841 5841
5815 5815 5816 5816 5817 5817 5818 5819 5821 5822 5822 5824 5825 5826 5824 5823 5823 5824 5824 5822 5823 5826 5827 5827 5827 5829 5829 5829 5829 5829 5829 5830 5833 5834 5834 5834 5833 5833 5833 5832 5831 5830 5830 5830 5831 5831 5831 5832 5832 5833 5835 5836 5837 5838 5838 5838 5838 5838 5838 5837 5837 5836 5836 5836 5835 5835 5834 5833 5833 5833 5833 5832 5832 5832 5831 5831 5831 5831 5831 5831 5832 5832 5833 5833 5833 5833 5834 5835 5835 5836 5837 5838 5838 5838 5838 5839 5840
5812 5813 5813 5814 5814 5814 5815 5816 5817 5818 5818 5820 5822 5822 5821 5820 5821 5822 5822 5820 5821 5823 5823 5824 5825 5826 5826 5826 5827 5826 5826 5827 5830 5831 5831 5832 5831 5831 5830 5828 5827 5826 5825 5826 5827 5828 5829 5829 5830 5831 5832 5834 5835 5835 5836 5836 5836 5836 5836 5835 5835 5835 5835 5834 5834 5833 5832 5832 5831 5831 5831 5830 5830 5830 5829 5829 5829 5829 5829 5829 5830 5830 5831 5832 5832 5832 5833 5833 5834 5834 5835 5836 5837 5837 5836 5836 5838
5809 5810 5811 5811 5811 5812 5813 5813 5815 5815 5816 5817 5818 5819 5818 5818 5818 5819 5819 5818 5820 5821 5821 5822 5822 5823 5823 5823 5824 5823 5822 5824 5827 5827 5828 5829 5829 5828 5826 5823 5822 5822 5821 5822 5824 5825 5827 5827 5828 5829 5830 5832 5833 5834 5834 5834 5834 5834 5833 5833 5833 5833 5833 5833 5832 5831 5830 5830 5829 5829 5828 5828 5828 5827 5827 5827 5827 5827 5827 5827 5828 5828 5829 5830 5831 5831 5832 5832 5833 5833 5834 5834 5835 5835 5834 5834 5836
5807 5807 5808 5808 5809 5809 5811 5812 5813 5814 5815 5815 5815 5816 5816 5816 5816 5816 5817 5816 5818 5819 5819 5821 5820 5820 5821 5820 5820 5820 5819 5819 5822 5825 5826 5826 5826 5825 5822 5819 5819 5819 5817 5819 5822 5824 5825 5825 5826 5828 5829 5831 5832 5832 5832 5832 5831 5831 5831 5831 5831 5831 5831 5830 5830 5829 5829 5828 5827 5827 5826 5826 5826 5825 5825 5825 5825 5825 5825 5826 5826 5826 5827 5828 5829 5830 5831 5831 5831 5832 5832 5833 5833 5833 5833 5833 5834
5804 5805 5805 5806 5806 5808 5809 5810 5812 5813 5813 5813 5812 5813 5813 5814 5815 5815 5815 5815 5815 5816 5817 5818 5818 5817 5818 5818 5818 5817 5816 5816 5819 5822 5822 5823 5823 5822 5822 5820 5819 5819 5818 5817 5819 5820 5821 5823 5824 5826 5828 5829 5829 5830 5829 5829 5829 5829 5828 5828 5828 5828 5828 5828 5828 5827 5827 5826 5825 5825 5824 5824 5824 5824 5824 5824 5823 5823 5823 5824 5824 5824 5825 5826 5827 5828 5829 5829 5830 5830 5830 5830 5831 5831 5831 5831 5832
5801 5802 5803 5804 5804 5806 5807 5809 5810 5810 5811 5811 5811 5812 5811 5811 5811 5811 5811 5811 5813 5813 5814 5815 5814 5815 5815 5815 5816 5815 5814 5815 5817 5819 5820 5820 5821 5820 5821 5823 5821 5820 5820 5817 5814 5816 5818 5820 5822 5824 5825 5826 5826 5827 5826 5826 5826 5826 5826 5826 5826 5826 5826 5826 5826 5825 5825 5824 5823 5823 5823 5822 5822 5822 5822 5822 5821 5821 5822 5822 5822 5822 5823 5824 5825 5826 5826 5827 5828 5828 5828 5828 5828 5829 5829 5830 5830
5799 5800 5801 5802 5803 5804 5805 5807 5807 5808 5809 5809 5808 5809 5809 5808 5808 5808 5807 5808 5810 5811 5812 5813 5813 5813 5813 5813 5814 5813 5813 5814 5815 5817 5817 5818 5818 5817 5818 5820 5819 5818 5819 5817 5812 5813 5816 5817 5819 5820 5821 5822 5823 5823 5824 5824 5824 5824 5824 5824 5824 5824 5824 5824 5824 5823 5822 5822 5821 5821 5821 5820 5820 5820 5820 5820 5820 5820 5820 5820 5820 5821 5821 5822 5823 5824 5824 5825 5825 5826 5826 5826 5826 5827 5828 5828 5828
5797 5797 5799 5800 5801 5802 5802 5804 5804 5805 5806 5804 5804 5805 5806 5806 5806 5806 5804 5805 5808 5809 5810 5811 5811 5812 5811 5811 5811 5811 5811 5812 5814 5815 5815 5815 5814 5815 5815 5816 5816 5816 5817 5817 5812 5811 5813 5814 5815 5816 5817 5818 5819 5820 5821 5821 5821 5821 5821 5822 5822 5822 5822 5821 5821 5821 5820 5819 5819 5819 5818 5818 5818 5818 5817 5818 5818 5818 5818 5818 5818 5819 5820 5820 5821 5821 5822 5822 5823 5824 5824 5824 5824 5825 5826 5826 5827
5794 5795 5797 5798 5799 5800 5800 5800 5800 5801 5801 5800 5799 5800 5802 5803 5803 5804 5803 5803 5805 5807 5808 5808 5809 5809 5808 5808 5809 5808 5809 5811 5812 5812 5812 5811 5811 5811 5812 5812 5813 5813 5814 5813 5811 5810 5810 5811 5812 5813 5814 5815 5816 5818 5818 5819 5819 5819 5819 5820 5820 5819 5819 5819 5818 5818 5817 5817 5816 5816 5816 5816 5815 5815 5815 5815 5816 5816 5816 5816 5816 5817 5818 5819 5819 5820 5820 5820 5821 5821 5822 5822 5823 5823 5824 5825 5825
5792 5793 5795 5797 5797 5796 5797 5796 5796 5796 5797 5797 5796 5796 5799 5800 5801 5802 5802 5802 5803 5805 5807 5807 5806 5805 5805 5805 5806 5806 5807 5810 5810 5809 5808 5808 5808 5808 5808 5808 5809 5809 5809 5808 5807 5807 5806 5807 5809 5810 5811 5812 5814 5815 5816 5817 5816 5816 5817 5817 5817 5817 5817 5816 5816 5815 5815 5814 5814 5814 5813 5813 5813 5813 5813 5813 5813 5813 5814 5814 5815 5815 5816 5817 5817 5818 5818 5818 5819 5819 5820 5820 5821 5822 5822 5823 5823
5790 5791 5793 5794 5793 5794 5794 5794 5794 5793 5793 5794 5795 5795 5797 5798 5799 5801 5801 5799 5801 5804 5805 5805 5804 5803 5802 5802 5803 5804 5805 5807 5807 5806 5806 5806 5806 5806 5806 5805 5806 5807 5807 5804 5802 5802 5802 5804 5806 5807 5809 5811 5812 5813 5814 5814 5814 5814 5814 5814 5815 5815 5814 5813 5813 5812 5812 5812 5811 5811 5811 5810 5811 5811 5811 5811 5811 5811 5812 5813 5813 5813 5814 5815 5815 5816 5816 5816 5817 5817 5818 5818 5819 5820 5820 5821 5821
5788 5790 5791 5791 5790 5791 5792 5792 5792 5791 5791 5792 5794 5795 5795 5796 5797 5799 5799 5797 5799 5801 5803 5803 5802 5801 5800 5801 5801 5802 5803 5804 5804 5803 5803 5804 5805 5805 5804 5804 5804 5805 5806 5804 5801 5800 5802 5803 5804 5806 5807 5809 5810 5811 5811 5812 5811 5811 5812 5812 5812 5812 5812 5811 5810 5810 5810 5809 5809 5809 5809 5809 5809 5809 5809 5809 5809 5810 5810 5811 5811 5811 5811 5812 5813 5814 5815 5815 5815 5815 5816 5816 5817 5818 5819 5819 5819
5786 5788 5789 5788 5789 5790 5790 5790 5789 5789 5790 5791 5793 5794 5794 5795 5796 5797 5797 5797 5797 5797 5799 5801 5800 5799 5799 5799 5799 5800 5801 5802 5802 5802 5802 5802 5803 5803 5802 5802 5802 5801 5803 5804 5802 5801 5802 5802 5803 5804 5805 5806 5807 5808 5809 5809 5809 5809 5810 5810 5810 5810 5810 5809 5808 5808 5808 5807 5807 5807 5807 5808 5808 5808 5808 5808 5808 5809 5809 5809 5809 5809 5809 5810 5811 5812 5813 5813 5813 5814 5814 5815 5815 5816 5817 5817 5818
5784 5786 5787 5787 5787 5788 5788 5788 5788 5787 5789 5791 5793 5794 5793 5793 5794 5794 5795 5795 5794 5794 5796 5797 5796 5796 5797 5797 5798 5799 5800 5800 5800 5801 5801 5801 5800 5800 5800 5800 5799 5799 5800 5802 5802 5803 5803 5802 5802 5802 5802 5803 5805 5806 5806 5807 5807 5808 5808 5808 5808 5808 5808 5807 5806 5806 5806 5806 5806 5806 5806 5806 5806 5806 5807 5807 5807 5807 5806 5806 5807 5807 5807 5808 5809 5810 5811 5812 5812 5812 5812 5813 5814 5814 5815 5816 5816
5781 5784 5785 5785 5785 5786 5786 5786 5786 5786 5788 5790 5792 5792 5792 5791 5791 5790 5792 5792 5792 5792 5793 5795 5794 5793 5794 5796 5798 5798 5798 5799 5799 5799 5799 5798 5798 5798 5799 5799 5798 5798 5799 5800 5802 5803 5803 5803 5802 5800 5801 5802 5803 5804 5804 5805 5805 5806 5806 5806 5806 5806 5805 5805 5804 5804 5805 5805 5805 5805 5804 5804 5804 5805 5806 5806 5806 5805 5804 5805 5805 5806 5806 5807 5808 5809 5810 5810 5811 5811 5811 5811 5812 5812 5813 5814 5815
5779 5781 5782 5782 5783 5783 5784 5784 5785 5786 5787 5789 5790 5790 5789 5789 5788 5788 5789 5789 5789 5790 5791 5792 5792 5791 5792 5794 5796 5796 5796 5797 5797 5797 5797 5796 5796 5797 5797 5798 5798 5799 5799 5799 5801 5802 5802 5802 5800 5800 5800 5801 5802 5802 5803 5803 5804 5804 5804 5804 5803 5803 5803 5803 5802 5802 5803 5803 5802 5802 5802 5802 5803 5804 5804 5804 5804 5804 5803 5804 5804 5804 5805 5807 5807 5808 5809 5809 5809 5810 5810 5810 5810 5811 5811 5812 5813
5778 5779 5779 5780 5780 5781 5781 5782 5783 5784 5785 5787 5788 5788 5788 5787 5786 5786 5786 5786 5787 5788 5789 5790 5791 5791 5791 5792 5793 5794 5794 5794 5795 5795 5795 5794 5795 5795 5796 5797 5798 5798 5799 5799 5800 5801 5801 5800 5799 5800 5799 5799 5800 5801 5802 5802 5802 5802 5802 5802 5801 5801 5801 5801 5801 5801 5801 5801 5800 5801 5801 5802 5802 5802 5802 5802 5802 5803 5803 5803 5803 5803 5804 5806 5807 5807 5807 5807 5808 5808 5808 5809 5809 5809 5809 5810 5811
5775 5776 5777 5778 5779 5779 5779 5780 5781 5782 5783 5785 5786 5786 5786 5785 5784 5784 5783 5783 5785 5786 5787 5789 5790 5789 5789 5789 5790 5791 5792 5792 5792 5793 5793 5793 5793 5793 5795 5796 5797 5798 5799 5799 5799 5800 5799 5799 5799 5798 5798 5798 5799 5800 5801 5801 5800 5800 5800 5800 5799 5799 5799 5799 5799 5799 5799 5799 5800 5800 5800 5800 5800 5800 5800 5801 5801 5802 5802 5802 5802 5803 5803 5804 5805 5806 5806 5806 5806 5807 5807 5808 5808 5808 5808 5808 5809
5773 5774 5775 5776 5777 5778 5778 5779 5779 5780 5781 5783 5783 5784 5784 5784 5784 5783 5781 5782 5784 5785 5786 5787 5788 5788 5787 5788 5788 5789 5790 5790 5790 5790 5790 5790 5790 5791 5793 5794 5796 5796 5797 5797 5797 5798 5798 5798 5797 5796 5796 5797 5798 5799 5799 5799 5798 5798 5798 5798 5798 5797 5797 5797 5797 5796 5796 5797 5798 5799 5798 5798 5798 5799 5800 5800 5801 5801 5801 5801 5801 5802 5803 5803 5804 5804 5805 5805 5805 5805 5805 5806 5806 5807 5807 5807 5808
5771 5771 5772 5773 5775 5777 5777 5777 5777 5778 5780 5781 5780 5781 5782 5782 5782 5780 5778 5780 5782 5783 5784 5785 5786 5786 5786 5787 5787 5787 5788 5788 5788 5788 5788 5788 5788 5789 5790 5792 5793 5794 5795 5794 5795 5796 5798 5797 5796 5796 5796 5796 5796 5797 5797 5796 5796 5795 5795 5796 5795 5795 5795 5795 5794 5794 5794 5795 5795 5796 5797 5796 5797 5798 5798 5798 5799 5799 5800 5800 5801 5802 5802 5802 5802 5803 5803 5803 5803 5803 5804 5805 5805 5805 5806 5806 5806
5768 5769 5770 5771 5773 5774 5774 5773 5774 5776 5778 5778 5777 5779 5780 5780 5779 5776 5776 5779 5780 5781 5783 5784 5785 5785 5786 5786 5786 5786 5786 5786 5786 5786 5786 5786 5786 5787 5788 5789 5790 5792 5793 5793 5792 5794 5796 5796 5795 5795 5794 5794 5795 5795 5794 5794 5794 5794 5793 5793 5793 5792 5791 5791 5791 5791 5791 5792 5793 5793 5794 5795 5795 5796 5797 5797 5797 5798 5799 5799 5800 5801 5802 5801 5801 5801 5802 5802 5802 5802 5803 5803 5803 5803 5804 5804 5804
5766 5767 5768 5769 5770 5770 5770 5771 5773 5774 5775 5774 5775 5777 5778 5777 5775 5773 5775 5778 5779 5780 5781 5783 5784 5784 5784 5784 5785 5785 5784 5784 5784 5784 5784 5784 5785 5785 5786 5788 5788 5788 5790 5790 5790 5791 5793 5794 5793 5793 5792 5792 5792 5792 5792 5792 5791 5791 5791 5790 5790 5789 5788 5788 5788 5788 5788 5789 5790 5790 5791 5793 5793 5794 5795 5796 5796 5797 5798 5799 5799 5800 5800 5800 5800 5800 5800 5800 5800 5800 5801 5801 5801 5802 5802 5802 5801
5763 5764 5765 5766 5766 5767 5768 5770 5771 5772 5772 5772 5773 5775 5775 5774 5772 5771 5773 5776 5776 5777 5778 5780 5781 5782 5782 5782 5783 5783 5783 5783 5782 5782 5782 5783 5783 5784 5785 5786 5785 5785 5785 5786 5788 5789 5791 5791 5790 5790 5790 5790 5790 5789 5789 5788 5788 5788 5787 5787 5787 5786 5785 5785 5785 5786 5786 5786 5787 5788 5789 5790 5790 5791 5792 5794 5795 5796 5796 5797 5798 5799 5799 5799 5799 5799 5799 5799 5799 5798 5798 5799 5799 5800 5800 5799 5799
5761 5761 5762 5763 5763 5764 5765 5767 5768 5768 5768 5769 5771 5772 5773 5772 5770 5769 5771 5773 5773 5774 5776 5777 5778 5779 5779 5780 5781 5782 5782 5782 5781 5781 5781 5781 5782 5783 5784 5785 5784 5783 5783 5784 5786 5788 5788 5788 5788 5788 5788 5788 5788 5787 5787 5786 5785 5785 5784 5784 5784 5783 5783 5782 5782 5783 5783 5783 5784 5784 5785 5786 5787 5788 5790 5791 5792 5793 5794 5794 5795 5796 5797 5798 5798 5798 5798 5797 5797 5797 5797 5797 5797 5798 5798 5797 5798
5758 5759 5760 5760 5760 5761 5762 5764 5765 5765 5765 5767 5769 5769 5770 5769 5767 5768 5770 5771 5771 5772 5774 5776 5776 5777 5777 5778 5779 5780 5780 5780 5780 5780 5780 5780 5780 5781 5782 5783 5783 5783 5783 5784 5785 5787 5787 5787 5787 5787 5787 5787 5787 5786 5786 5785 5784 5783 5783 5783 5782 5782 5781 5781 5780 5780 5780 5781 5781 5782 5782 5783 5784 5785 5786 5788 5790 5791 5792 5792 5793 5794 5795 5796 5796 5796 5796 5795 5795 5795 5795 5795 5796 5796 5796 5796 5796
5756 5757 5757 5759 5759 5760 5762 5764 5765 5764 5764 5764 5766 5767 5767 5766 5765 5766 5768 5769 5770 5772 5773 5774 5774 5775 5775 5776 5777 5778 5778 5778 5778 5778 5779 5779 5779 5779 5780 5780 5781 5782 5782 5783 5784 5785 5785 5785 5785 5785 5784 5784 5784 5784 5784 5784 5783 5782 5782 5781 5781 5780 5780 5779 5779 5778 5779 5779 5780 5780 5780 5781 5781 5782 5783 5785 5787 5788 5789 5790 5791 5792 5793 5794 5794 5794 5794 5794 5793 5793 5793 5793 5793 5793 5793 5794 5794
5755 5755 5755 5756 5757 5759 5760 5761 5762 5762 5762 5762 5764 5765 5765 5765 5764 5764 5766 5768 5769 5771 5772 5773 5773 5773 5773 5774 5774 5775 5776 5776 5776 5776 5777 5777 5777 5777 5778 5778 5778 5779 5780 5781 5781 5781 5780 5780 5780 5780 5780 5780 5781 5781 5781 5781 5780 5780 5779 5779 5779 5778 5778 5777 5777 5777 5777 5777 5778 5778 5779 5779 5779 5779 5780 5782 5783 5784 5786 5787 5788 5789 5791 5791 5792 5792 5792 5792 5792 5791 5791 5791 5791 5791 5791 5791 5791
5753 5753 5753 5754 5755 5756 5758 5759 5759 5760 5760 5761 5763 5764 5764 5764 5764 5764 5765 5766 5768 5770 5771 5771 5771 5771 5771 5771 5772 5773 5773 5774 5775 5775 5775 5776 5776 5776 5776 5776 5776 5777 5777 5777 5777 5777 5776 5776 5776 5776 5776 5777 5777 5777 5778 5778 5777 5776 5776 5777 5777 5777 5776 5776 5775 5775 5775 5776 5776 5776 5776 5776 5777 5777 5778 5779 5780 5782 5783 5784 5785 5787 5788 5788 5789 5789 5789 5790 5789 5789 5789 5788 5788 5788 5789 5789 5789
5751 5752 5752 5752 5753 5755 5756 5757 5757 5757 5758 5759 5761 5763 5764 5764 5764 5763 5764 5764 5766 5768 5769 5769 5769 5769 5768 5769 5770 5771 5771 5772 5773 5774 5774 5774 5774 5775 5776 5775 5775 5774 5774 5774 5774 5774 5774 5774 5774 5775 5775 5775 5775 5776 5776 5775 5775 5774 5774 5774 5775 5775 5774 5774 5774 5774 5774 5774 5774 5774 5774 5774 5774 5774 5776 5777 5778 5779 5781 5782 5782 5783 5784 5785 5786 5786 5787 5787 5786 5786 5786 5786 5786 5786 5786 5786 5787
5749 5750 5751 5751 5752 5753 5755 5755 5755 5756 5757 5758 5760 5762 5764 5764 5764 5764 5763 5763 5765 5766 5767 5767 5767 5766 5766 5767 5768 5768 5769 5771 5771 5772 5772 5772 5773 5774 5774 5773 5772 5772 5772 5773 5773 5772 5773 5773 5774 5774 5774 5775 5775 5775 5775 5775 5774 5773 5772 5772 5772 5773 5773 5772 5772 5773 5773 5773 5772 5772 5771 5771 5771 5771 5772 5773 5775 5776 5778 5779 5780 5780 5781 5781 5782 5782 5783 5783 5783 5783 5783 5783 5783 5783 5784 5784 5784
5746 5748 5749 5750 5750 5752 5753 5754 5754 5755 5756 5757 5759 5761 5763 5764 5764 5764 5763 5763 5764 5764 5765 5765 5765 5765 5764 5764 5765 5766 5767 5768 5769 5770 5770 5770 5771 5771 5771 5771 5770 5770 5770 5771 5771 5771 5771 5772 5772 5772 5773 5773 5774 5774 5774 5774 5774 5772 5770 5770 5771 5771 5771 5771 5771 5771 5770 5770 5770 5770 5770 5770 5770 5770 5770 5771 5772 5773 5774 5776 5777 5778 5778 5778 5778 5779 5779 5779 5779 5780 5780 5780 5781 5781 5781 5781 5781
5744 5746 5748 5749 5749 5750 5751 5751 5752 5753 5754 5755 5757 5759 5761 5762 5763 5763 5761 5761 5762 5762 5762 5763 5763 5763 5763 5763 5763 5764 5765 5766 5766 5767 5768 5768 5769 5769 5769 5769 5768 5768 5768 5768 5769 5769 5769 5769 5770 5771 5771 5771 5772 5772 5773 5773 5773 5772 5770 5769 5769 5769 5769 5769 5769 5769 5768 5767 5767 5767 5767 5768 5768 5769 5769 5769 5770 5771 5772 5773 5774 5774 5775 5775 5775 5776 5776 5776 5777 5777 5777 5778 5778 5779 5779 5779 5779
5742 5744 5746 5747 5748 5748 5749 5749 5749 5750 5751 5752 5754 5755 5757 5759 5762 5762 5760 5759 5760 5759 5760 5761 5762 5761 5761 5761 5762 5763 5764 5764 5764 5764 5765 5766 5767 5767 5767 5767 5767 5767 5766 5766 5767 5767 5767 5767 5768 5769 5769 5769 5769 5770 5771 5771 5772 5772 5770 5769 5769 5768 5768 5767 5766 5766 5765 5765 5765 5764 5764 5765 5766 5766 5767 5767 5767 5768 5769 5769 5770 5771 5771 5772 5772 5773 5773 5774 5774 5774 5775 5775 5776 5776 5776 5776 5777
5741 5743 5745 5746 5746 5746 5747 5747 5748 5748 5748 5749 5750 5752 5753 5755 5759 5761 5759 5758 5757 5756 5757 5759 5759 5759 5760 5760 5761 5762 5762 5762 5763 5763 5763 5764 5765 5766 5766 5766 5766 5765 5764 5765 5765 5765 5765 5765 5765 5766 5767 5767 5767 5767 5768 5769 5770 5771 5770 5768 5767 5767 5766 5765 5764 5764 5763 5763 5763 5762 5762 5763 5763 5764 5764 5764 5764 5765 5765 5766 5767 5768 5768 5769 5770 5770 5771 5771 5771 5772 5772 5773 5773 5773 5773 5773 5774
5739 5741 5743 5744 5744 5744 5745 5745 5745 5746 5746 5746 5747 5749 5751 5753 5756 5757 5757 5756 5755 5753 5754 5756 5756 5757 5758 5758 5759 5759 5760 5760 5760 5761 5762 5762 5763 5764 5764 5764 5763 5763 5763 5763 5764 5764 5763 5763 5763 5764 5765 5765 5765 5765 5766 5766 5767 5768 5768 5767 5766 5764 5763 5763 5763 5762 5762 5761 5761 5761 5761 5761 5761 5762 5762 5762 5762 5762 5763 5763 5764 5765 5766 5766 5767 5768 5768 5768 5769 5769 5769 5770 5770 5770 5770 5770 5771
5737 5738 5740 5741 5742 5742 5743 5743 5743 5744 5744 5745 5745 5747 5748 5750 5753 5753 5753 5754 5753 5752 5751 5752 5753 5754 5755 5756 5756 5757 5757 5757 5758 5760 5761 5761 5760 5761 5761 5761 5761 5761 5761 5762 5762 5762 5762 5761 5761 5761 5762 5762 5762 5763 5763 5764 5764 5764 5765 5765 5763 5762 5761 5760 5760 5760 5759 5759 5759 5759 5759 5759 5759 5760 5760 5760 5760 5761 5761 5761 5762 5763 5763 5764 5764 5765 5765 5765 5766 5766 5766 5766 5767 5767 5767 5767 5767
5735 5735 5736 5737 5738 5740 5741 5741 5742 5742 5742 5743 5743 5744 5745 5746 5749 5750 5751 5751 5751 5751 5750 5750 5751 5752 5752 5754 5754 5754 5754 5754 5756 5759 5760 5759 5758 5758 5758 5758 5759 5759 5759 5760 5761 5761 5760 5760 5759 5758 5759 5759 5759 5760 5760 5761 5761 5761 5760 5761 5760 5759 5758 5757 5757 5757 5757 5757 5757 5757 5757 5757 5757 5758 5758 5758 5759 5759 5759 5759 5760 5760 5761 5761 5762 5762 5762 5762 5763 5763 5763 5764 5764 5764 5764 5764 5764
5731 5731 5733 5734 5736 5738 5738 5738 5739 5739 5740 5740 5741 5741 5741 5743 5746 5748 5749 5748 5748 5749 5748 5748 5749 5749 5749 5751 5752 5752 5752 5752 5755 5757 5757 5756 5756 5756 5756 5756 5756 5757 5757 5758 5759 5758 5758 5758 5757 5756 5755 5756 5756 5756 5757 5757 5757 5757 5757 5757 5757 5756 5755 5754 5754 5754 5754 5755 5755 5755 5755 5755 5755 5756 5756 5756 5757 5757 5757 5757 5758 5758 5758 5759 5759 5760 5760 5760 5760 5761 5761 5761 5761 5762 5762 5762 5762
5728 5729 5730 5732 5733 5735 5735 5735 5736 5737 5737 5738 5739 5739 5738 5739 5742 5745 5745 5745 5745 5745 5744 5746 5747 5747 5747 5748 5749 5749 5749 5751 5753 5754 5754 5753 5753 5753 5753 5754 5754 5754 5755 5755 5755 5755 5755 5755 5754 5753 5752 5753 5753 5753 5754 5753 5754 5755 5755 5755 5755 5754 5752 5751 5751 5752 5752 5753 5753 5753 5753 5753 5753 5754 5754 5754 5754 5755 5755 5755 5756 5756 5756 5757 5757 5757 5758 5758 5758 5759 5759 5759 5759 5760 5760 5760 5760
5727 5727 5728 5729 5731 5731 5732 5733 5734 5734 5735 5735 5735 5736 5736 5736 5738 5740 5742 5742 5742 5741 5741 5742 5745 5745 5745 5745 5745 5746 5747 5749 5750 5750 5749 5749 5750 5750 5750 5750 5750 5750 5751 5751 5751 5752 5752 5752 5751 5751 5750 5750 5750 5750 5750 5749 5750 5751 5752 5752 5752 5751 5750 5749 5749 5750 5750 5750 5751 5751 5751 5751 5751 5751 5752 5752 5752 5753 5753 5754 5754 5755 5755 5755 5756 5756 5756 5756 5757 5757 5757 5757 5757 5757 5758 5758 5758
5725 5725 5726 5726 5727 5728 5729 5730 5730 5731 5732 5732 5732 5733 5734 5734 5735 5737 5738 5739 5739 5738 5738 5739 5741 5743 5743 5742 5742 5743 5744 5746 5746 5745 5745 5745 5746 5746 5746 5746 5746 5747 5746 5746 5747 5747 5747 5748 5748 5749 5748 5748 5747 5746 5745 5746 5747 5748 5748 5748 5749 5749 5748 5747 5748 5748 5747 5748 5749 5749 5749 5749 5749 5749 5750 5750 5751 5751 5752 5752 5753 5753 5754 5754 5754 5755 5755 5755 5755 5755 5755 5755 5756 5756 5756 5756 5756
5722 5722 5722 5724 5724 5725 5726 5727 5727 5728 5728 5729 5730 5731 5732 5732 5734 5734 5735 5736 5735 5734 5735 5736 5738 5739 5740 5740 5740 5739 5741 5742 5742 5742 5742 5742 5743 5743 5743 5743 5743 5743 5743 5743 5743 5743 5743 5744 5745 5745 5745 5744 5744 5745 5744 5744 5746 5746 5745 5745 5746 5746 5745 5745 5746 5746 5745 5745 5746 5747 5747 5747 5747 5748 5748 5748 5749 5750 5750 5751 5751 5752 5752 5752 5753 5753 5753 5753 5754 5754 5754 5754 5754 5754 5754 5754 5754
5719 5720 5721 5722 5722 5723 5723 5724 5724 5725 5725 5726 5728 5728 5729 5731 5732 5732 5732 5732 5732 5731 5732 5734 5735 5736 5737 5738 5738 5737 5738 5739 5739 5739 5739 5740 5739 5739 5739 5739 5740 5741 5741 5742 5742 5741 5741 5741 5741 5742 5742 5741 5742 5743 5742 5743 5744 5744 5743 5743 5743 5743 5743 5742 5743 5744 5743 5743 5744 5745 5745 5745 5746 5746 5747 5747 5747 5748 5749 5749 5749 5750 5750 5751 5751 5751 5751 5752 5752 5752 5753 5753 5753 5753 5753 5753 5753
5716 5718 5719 5719 5720 5720 5720 5721 5721 5721 5722 5723 5725 5726 5726 5728 5729 5729 5728 5729 5729 5729 5730 5732 5733 5734 5734 5735 5735 5736 5736 5736 5736 5736 5737 5737 5737 5737 5737 5737 5738 5738 5739 5740 5740 5739 5739 5739 5739 5739 5739 5739 5740 5740 5740 5741 5741 5741 5741 5740 5741 5742 5740 5740 5741 5741 5741 5741 5742 5743 5743 5744 5744 5745 5745 5746 5746 5746 5747 5747 5748 5748 5748 5749 5749 5749 5750 5750 5750 5750 5751 5751 5751 5751 5751 5751 5751
5715 5717 5717 5716 5717 5717 5717 5718 5718 5719 5719 5721 5723 5723 5723 5724 5724 5725 5725 5725 5726 5727 5729 5730 5731 5732 5733 5733 5734 5734 5734 5734 5734 5734 5734 5735 5735 5736 5736 5736 5737 5737 5738 5738 5738 5737 5737 5737 5737 5738 5738 5737 5738 5738 5738 5738 5738 5738 5738 5738 5739 5739 5738 5738 5739 5739 5739 5739 5740 5741 5742 5743 5743 5743 5744 5744 5744 5745 5745 5746 5746 5746 5746 5747 5747 5747 5748 5748 5748 5748 5749 5749 5749 5749 5749 5749 5749
5714 5715 5714 5714 5715 5715 5715 5716 5716 5716 5717 5719 5720 5720 5720 5720 5721 5721 5722 5722 5723 5725 5727 5728 5729 5730 5731 5732 5732 5732 5732 5732 5733 5733 5733 5733 5734 5734 5735 5735 5735 5736 5736 5736 5735 5735 5735 5735 5735 5736 5736 5736 5736 5736 5736 5736 5735 5736 5736 5737 5737 5737 5736 5736 5737 5737 5737 5737 5738 5738 5740 5741 5742 5743 5743 5743 5743 5743 5744 5744 5745 5745 5745 5745 5745 5745 5746 5746 5746 5746 5747 5747 5747 5747 5748 5748 5748
5711 5712 5712 5712 5713 5713 5713 5713 5714 5714 5715 5716 5717 5717 5717 5717 5717 5718 5720 5720 5721 5723 5725 5726 5727 5728 5729 5730 5730 5730 5730 5730 5730 5731 5731 5731 5732 5732 5732 5733 5733 5733 5733 5733 5732 5732 5732 5733 5732 5733 5734 5734 5734 5734 5734 5734 5733 5734 5734 5735 5735 5734 5734 5734 5735 5735 5736 5736 5736 5736 5737 5738 5739 5740 5741 5741 5741 5741 5742 5742 5743 5744 5744 5744 5744 5744 5744 5744 5744 5744 5745 5745 5745 5745 5745 5745 5746
5707 5709 5710 5709 5709 5709 5710 5711 5711 5712 5713 5713 5714 5714 5714 5714 5715 5716 5718 5719 5719 5721 5723 5724 5725 5725 5726 5727 5727 5728 5728 5727 5727 5728 5729 5728 5728 5729 5729 5729 5729 5729 5729 5729 5729 5729 5729 5730 5730 5730 5731 5731 5731 5731 5731 5732 5732 5732 5732 5733 5733 5732 5731 5732 5733 5734 5734 5734 5734 5734 5734 5734 5735 5736 5738 5739 5739 5739 5740 5740 5741 5741 5742 5742 5743 5743 5743 5743 5743 5743 5743 5743 5743 5743 5743 5743 5743
5705 5706 5706 5706 5706 5706 5708 5709 5708 5709 5710 5711 5712 5713 5711 5711 5712 5714 5715 5716 5717 5718 5720 5721 5722 5722 5723 5723 5724 5725 5725 5725 5725 5725 5725 5725 5725 5725 5726 5726 5725 5725 5725 5725 5725 5725 5726 5727 5727 5728 5728 5728 5728 5728 5729 5729 5729 5730 5729 5729 5729 5729 5729 5729 5731 5731 5732 5732 5732 5732 5732 5732 5733 5733 5734 5736 5737 5738 5738 5738 5739 5739 5739 5740 5740 5741 5741 5741 5741 5741 5741 5741 5741 5741 5741 5740 5740